| time (UTC) | temp C | wind direction | speed KPH | gust KPH | rain 1hr cm | rain 24hr cm | rain mn cm | humidity % | barometer mb |
| 20260904225426 | 13 | 310 | 12.9 | 25.7 | 0.05 | 0.00 | 2.97 | 72 | 1024.5 |
| 20260904223626 | 13 | 298 | 14.5 | 24.1 | 0.03 | 0.18 | 2.97 | 71 | 1024.2 |
| 20260904222726 | 13 | 311 | 16.1 | 30.6 | 0.00 | 0.15 | 2.95 | 71 | 1023.9 |
| 20260904221826 | 13 | 285 | 16.1 | 27.4 | 0.00 | 0.15 | 2.95 | 70 | 1023.8 |
| 20260904220026 | 13 | 283 | 14.5 | 30.6 | 0.00 | 0.15 | 2.95 | 71 | 1023.6 |
| 20260904215126 | 13 | 281 | 12.9 | 25.7 | 0.00 | 0.15 | 2.95 | 71 | 1023.6 |
| 20260904214226 | 12 | 291 | 12.9 | 25.7 | 0.00 | 0.15 | 2.95 | 71 | 1023.4 |
| 20260904213326 | 12 | 315 | 19.3 | 38.6 | 0.00 | 0.18 | 2.95 | 71 | 1023.6 |
| 20260904212426 | 13 | 291 | 16.1 | 38.6 | 0.00 | 0.18 | 2.95 | 71 | 1023.4 |
| 20260904211526 | 13 | 289 | 16.1 | 33.8 | 0.00 | 0.18 | 2.95 | 71 | 1023.4 |
| 20260904210626 | 13 | 297 | 16.1 | 33.8 | 0.00 | 0.18 | 2.95 | 70 | 1023.1 |
| 20260904205726 | 13 | 308 | 14.5 | 27.4 | 0.00 | 0.18 | 2.95 | 70 | 1023.0 |
| 20260904204826 | 13 | 295 | 12.9 | 27.4 | 0.00 | 0.18 | 2.95 | 70 | 1022.9 |
| 20260904203926 | 13 | 304 | 12.9 | 24.1 | 0.00 | 0.18 | 2.95 | 70 | 1022.8 |
| 20260904203026 | 13 | 287 | 12.9 | 24.1 | 0.03 | 0.18 | 2.95 | 70 | 1022.7 |
| 20260904202126 | 13 | 279 | 12.9 | 24.1 | 0.03 | 0.18 | 2.95 | 70 | 1022.8 |
| 20260904201226 | 13 | 284 | 12.9 | 24.1 | 0.03 | 0.18 | 2.95 | 70 | 1022.8 |
| 20260904200326 | 13 | 293 | 14.5 | 27.4 | 0.03 | 0.18 | 2.95 | 70 | 1022.6 |
| 20260904195426 | 13 | 303 | 14.5 | 24.1 | 0.03 | 0.18 | 2.95 | 70 | 1022.6 |
| 20260904194526 | 13 | 296 | 16.1 | 27.4 | 0.03 | 0.18 | 2.95 | 69 | 1022.5 |
| 20260904192726 | 14 | 309 | 14.5 | 25.7 | 0.00 | 0.15 | 2.95 | 64 | 1022.4 |
| 20260904191826 | 14 | 270 | 12.9 | 22.5 | 0.00 | 0.15 | 2.95 | 64 | 1022.1 |
| 20260904190926 | 14 | 298 | 12.9 | 29.0 | 0.00 | 0.15 | 2.95 | 63 | 1022.1 |
| 20260904190026 | 15 | 285 | 16.1 | 27.4 | 0.00 | 0.15 | 2.95 | 63 | 1022.0 |
| 20260904185126 | 15 | 281 | 16.1 | 27.4 | 0.00 | 0.18 | 2.95 | 64 | 1022.0 |
| 20260904184226 | 15 | 273 | 14.5 | 25.7 | 0.00 | 0.18 | 2.95 | 65 | 1021.8 |
| 20260904183326 | 15 | 295 | 14.5 | 27.4 | 0.00 | 0.18 | 2.95 | 66 | 1021.6 |
| 20260904182426 | 15 | 289 | 14.5 | 24.1 | 0.00 | 0.18 | 2.95 | 67 | 1021.6 |
| 20260904181526 | 15 | 320 | 14.5 | 27.4 | 0.00 | 0.18 | 2.95 | 66 | 1021.6 |
| 20260904180626 | 15 | 279 | 14.5 | 29.0 | 0.00 | 0.18 | 2.95 | 65 | 1021.6 |
| 20260904175726 | 15 | 273 | 14.5 | 27.4 | 0.00 | 0.18 | 2.95 | 65 | 1021.3 |
| 20260904174826 | 15 | 281 | 12.9 | 24.1 | 0.00 | 0.18 | 2.95 | 64 | 1021.3 |
| 20260904173926 | 15 | 279 | 14.5 | 27.4 | 0.00 | 0.18 | 2.95 | 63 | 1021.1 |
| 20260904173026 | 15 | 304 | 17.7 | 32.2 | 0.00 | 0.18 | 2.95 | 62 | 1021.0 |
| 20260904172126 | 15 | 313 | 16.1 | 32.2 | 0.03 | 0.18 | 2.95 | 61 | 1021.2 |
| 20260904171226 | 16 | 304 | 16.1 | 32.2 | 0.03 | 0.18 | 2.95 | 63 | 1020.9 |
| 20260904170326 | 15 | 293 | 14.5 | 25.7 | 0.03 | 0.18 | 2.95 | 68 | 1020.5 |
| 20260904162727 | 14 | 299 | 19.3 | 37.0 | 0.03 | 0.18 | 2.95 | 61 | 1020.8 |
| 20260904161826 | 15 | 309 | 16.1 | 29.0 | 0.00 | 0.15 | 2.95 | 60 | 1020.4 |
| 20260904160926 | 16 | 295 | 11.3 | 24.1 | 0.00 | 0.15 | 2.95 | 60 | 1020.2 |
| 20260904160026 | 16 | 299 | 16.1 | 30.6 | 0.00 | 0.15 | 2.95 | 59 | 1020.1 |
| 20260904155127 | 16 | 289 | 17.7 | 33.8 | 0.00 | 0.15 | 2.95 | 60 | 1019.7 |
| 20260904154227 | 16 | 310 | 17.7 | 27.4 | 0.00 | 0.15 | 2.95 | 60 | 1019.9 |
| 20260904153326 | 15 | 294 | 16.1 | 33.8 | 0.00 | 0.15 | 2.95 | 60 | 1019.6 |
| 20260904152426 | 16 | 334 | 17.7 | 35.4 | 0.00 | 0.15 | 2.95 | 58 | 1019.6 |
| 20260904151527 | 15 | 296 | 22.5 | 37.0 | 0.00 | 0.15 | 2.95 | 58 | 1019.8 |
| 20260904150626 | 16 | 310 | 17.7 | 37.0 | 0.00 | 0.15 | 2.95 | 59 | 1019.8 |
| 20260904145726 | 16 | 284 | 17.7 | 33.8 | 0.00 | 0.15 | 2.95 | 60 | 1019.4 |
| 20260904144826 | 15 | 301 | 16.1 | 25.7 | 0.00 | 0.15 | 2.95 | 60 | 1019.7 |
| 20260904143926 | 16 | 282 | 16.1 | 25.7 | 0.00 | 0.15 | 2.95 | 61 | 1019.4 |
| 20260904142128 | 15 | 264 | 16.1 | 33.8 | 0.00 | 0.15 | 2.95 | 60 | 1019.6 |
| 20260904134528 | 15 | 302 | 16.1 | 25.7 | 0.00 | 0.15 | 2.95 | 66 | 1019.3 |
| 20260904132726 | 15 | 322 | 17.7 | 38.6 | 0.03 | 0.15 | 2.95 | 68 | 1019.0 |
| 20260904131826 | 15 | 311 | 17.7 | 33.8 | 0.03 | 0.15 | 2.95 | 69 | 1018.7 |
| 20260904130927 | 15 | 311 | 19.3 | 33.8 | 0.03 | 0.15 | 2.95 | 70 | 1018.8 |
| 20260904130026 | 15 | 299 | 16.1 | 30.6 | 0.03 | 0.15 | 2.95 | 65 | 1018.6 |
| 20260904125127 | 15 | 291 | 16.1 | 27.4 | 0.03 | 0.15 | 2.95 | 61 | 1018.5 |
| 20260904124226 | 15 | 306 | 16.1 | 29.0 | 0.00 | 0.13 | 2.95 | 56 | 1018.3 |
| 20260904123326 | 16 | 300 | 12.9 | 24.1 | 0.00 | 0.13 | 2.95 | 55 | 1018.0 |
| 20260904122426 | 16 | 304 | 14.5 | 29.0 | 0.00 | 0.13 | 2.95 | 54 | 1017.9 |
| 20260904121526 | 16 | 299 | 14.5 | 24.1 | 0.00 | 0.15 | 2.95 | 53 | 1018.1 |
| 20260904120626 | 16 | 342 | 14.5 | 25.7 | 0.00 | 0.15 | 2.95 | 53 | 1018.2 |
| 20260904113926 | 16 | 313 | 14.5 | 24.1 | 0.03 | 0.15 | 2.95 | 51 | 1017.8 |
| 20260904113026 | 16 | 275 | 17.7 | 33.8 | 0.03 | 0.15 | 2.95 | 49 | 1017.7 |
| 20260904112126 | 17 | 306 | 16.1 | 27.4 | 0.03 | 0.15 | 2.95 | 50 | 1017.5 |
| 20260904105426 | 16 | 299 | 19.3 | 35.4 | 0.00 | 0.13 | 2.95 | 51 | 1016.9 |
| 20260904103627 | 16 | 308 | 17.7 | 38.6 | 0.00 | 0.13 | 2.95 | 52 | 1016.8 |
| 20260904102727 | 16 | 279 | 19.3 | 37.0 | 0.03 | 0.13 | 2.95 | 54 | 1016.3 |
| 20260904101827 | 16 | 306 | 17.7 | 33.8 | 0.03 | 0.13 | 2.95 | 53 | 1016.2 |
| 20260904100926 | 16 | 322 | 14.5 | 32.2 | 0.03 | 0.13 | 2.95 | 54 | 1016.2 |
| 20260904100027 | 16 | 317 | 17.7 | 33.8 | 0.03 | 0.13 | 2.95 | 53 | 1016.0 |
| 20260904095126 | 16 | 331 | 19.3 | 37.0 | 0.03 | 0.13 | 2.95 | 53 | 1015.8 |
| 20260904094227 | 16 | 290 | 20.9 | 35.4 | 0.03 | 0.13 | 2.95 | 54 | 1015.8 |
| 20260904093326 | 16 | 305 | 20.9 | 37.0 | 0.03 | 0.13 | 2.95 | 56 | 1015.6 |
| 20260904092428 | 16 | 313 | 20.9 | 35.4 | 0.00 | 0.10 | 2.95 | 58 | 1015.2 |
| 20260904091527 | 16 | 281 | 19.3 | 33.8 | 0.00 | 0.10 | 2.95 | 62 | 1014.9 |
| 20260904090626 | 16 | 308 | 20.9 | 35.4 | 0.00 | 0.10 | 2.95 | 66 | 1014.7 |
| 20260904084827 | 15 | 285 | 17.7 | 33.8 | 0.00 | 0.10 | 2.95 | 70 | 1014.1 |
| 20260904083928 | 15 | 350 | 11.3 | 24.1 | 0.00 | 0.10 | 2.95 | 70 | 1013.8 |
| 20260904083027 | 15 | 26 | 11.3 | 29.0 | 0.00 | 0.10 | 2.95 | 70 | 1013.5 |
| 20260904082126 | 15 | 338 | 14.5 | 32.2 | 0.00 | 0.10 | 2.95 | 70 | 1013.5 |
| 20260904081227 | 14 | 208 | 11.3 | 24.1 | 0.00 | 0.10 | 2.95 | 70 | 1013.3 |
| 20260904080327 | 14 | 78 | 9.7 | 25.7 | 0.00 | 0.10 | 2.95 | 70 | 1013.3 |
| 20260904075426 | 14 | 284 | 9.7 | 19.3 | 0.00 | 0.10 | 2.95 | 70 | 1013.3 |
| 20260904074527 | 14 | 99 | 8.0 | 12.9 | 0.00 | 0.10 | 2.95 | 70 | 1013.1 |
| 20260904073627 | 14 | 122 | 8.0 | 16.1 | 0.00 | 0.10 | 2.95 | 70 | 1013.4 |
| 20260904072726 | 14 | 278 | 9.7 | 17.7 | 0.00 | 0.10 | 2.95 | 70 | 1013.2 |
| 20260904071826 | 14 | 138 | 8.0 | 16.1 | 0.00 | 0.10 | 2.95 | 70 | 1013.3 |
| 20260904070926 | 13 | 143 | 9.7 | 19.3 | 0.00 | 0.10 | 2.95 | 70 | 1013.5 |
| 20260904070027 | 13 | 141 | 8.0 | 16.1 | 0.00 | 0.10 | 2.95 | 70 | 1013.2 |
| 20260904065126 | 14 | 232 | 8.0 | 14.5 | 0.00 | 0.10 | 2.95 | 71 | 1013.2 |
| 20260904064226 | 13 | 172 | 8.0 | 17.7 | 0.00 | 0.10 | 2.95 | 71 | 1013.1 |
| 20260904063327 | 13 | 142 | 9.7 | 30.6 | 0.00 | 0.10 | 2.95 | 72 | 1013.0 |
| 20260904062427 | 13 | 264 | 9.7 | 19.3 | 0.00 | 0.10 | 2.95 | 72 | 1013.0 |
| 20260904061540 | 13 | 100 | 8.0 | 19.3 | 0.00 | 0.10 | 2.95 | 72 | 1013.3 |